Regional Weather Roundup
Issued by NWS

Home | Current Version | Previous Version | Graphics & Text | Print | Product List | Glossary Off
Versions: 1 2 3 4 5 6 7 8 9 10 11 12 13 14 15 16 17 18 19 20 21 22 23 24 25 26 27 28 29 30 31 32 33 34 35 36 37 38 39 40 41 42 43 44 45 46 47 48 49 50

000
ASUS43 KTOP 290859
RWRKS

WEATHER ROUNDUP FOR KANSAS
NATIONAL WEATHER SERVICE GOODLAND KS
400 AM CDT SAT AUG 29 2015

NOTE:  "FAIR" INDICATES FEW OR NO CLOUDS BELOW 12,000 FEET WITH NO
SIGNIFICANT WEATHER AND/OR OBSTRUCTIONS TO VISIBILITY.

KSZ001>006-013>018-027>032-041>047-291000-
NORTHWEST KANSAS

CITY           SKY/WX    TMP DP  RH WIND       PRES   REMARKS
GOODLAND       CLEAR     58  55  90 W7        30.17S
HAYS           CLEAR     61  52  72 NW8       30.07R
HILL CITY      CLEAR     59  57  93 NW5       30.08S
RUSSELL        CLEAR     60  59  96 NW6       30.04R
$$

KSZ061>065-074>080-084>089-291000-
SOUTHWEST KANSAS

CITY           SKY/WX    TMP DP  RH WIND       PRES   REMARKS
DODGE CITY     CLEAR     60  58  92 NW6       30.09S
ELKHART          N/A     64  56  75 NE5         N/A
GARDEN CITY    CLEAR     63  59  87 NE5       30.11S
GREAT BEND     CLEAR     63  57  82 NW8       30.05S
LIBERAL        PTCLDY    70  61  73 E6        30.12R
PRATT          CLEAR     63  61  94 CALM      30.06R
$$

KSZ066>073-081>083-090>101-291000-
SOUTHEAST KANSAS

CITY           SKY/WX    TMP DP  RH WIND       PRES   REMARKS
CHANUTE        PTCLDY    69  67  93 S7        29.96S
COFFEYVILLE    PTCLDY    70  68  93 SE7       29.96S
HUTCHINSON     CLEAR     65  62  90 N3        30.02S
NEWTON         CLEAR     66  59  77 N6        30.02S
PARSONS        MOCLDY    70  68  93 S3        29.97S
WICHITA INTL   CLEAR     71  65  81 N8        29.98S
WICHITA JABRA  CLEAR     67  65  93 N3        29.99R
$$

KSZ007>012-019>026-033>040-048>060-102>105-291000-
NORTHEAST KANSAS

CITY           SKY/WX    TMP DP  RH WIND       PRES   REMARKS
CONCORDIA      MOCLDY    63  61  93 NW7       30.01F
EMPORIA        CLEAR     66  64  93 NW6       29.97S
LAWRENCE       CLOUDY    70  66  87 NW6       29.94R
MANHATTAN      CLOUDY    67  64  90 VRB5      29.98R
OLATHE IND     CLOUDY    70  69  97 W5        29.95R
OLATHE EXE     CLOUDY    69  68  96 SW3       29.94R
SALINA         CLEAR     66  62  87 W7        30.01R
TOPEKA BILLARD PTCLDY    66  63  90 NW3       29.96R
TOPEKA FORBES  PTCLDY    67  62  84 NW10      29.96R
$$



USA.gov is the U.S. government's official web portal to all federal, state and local government web resources and services.